Weather History for LGEL - March, 2013

Change the Weather History Date:

Tuesday, March 26, 2013

  Actual Average Record
Temperature  
Mean Temperature 60 °F -  
Max Temperature 68 °F 65 °F 80 °F (2001)
Min Temperature 51 °F 48 °F 37 °F (2003)
Degree Days  
Heating Degree Days 6    
Growing Degree Days 10 (Base 50)    
Moisture  
Dew Point 45 °F    
Average Humidity 59    
Maximum Humidity 100    
Minimum Humidity 43    
Precipitation  
Precipitation 0.00 in - - ()
Sea Level Pressure  
Sea Level Pressure 29.55 in    
Wind  
Wind Speed 5 mph ()    
Max Wind Speed 17 mph    
Max Gust Speed -    
Visibility 6.1 miles    
Events Rain    
Averages and records for this station are not official NWS values.
T = Trace of Precipitation, MM = Missing Value Source: Averaged Metar Reports

Daily Weather History Graph

Daily Weather History Graph

Search for Another Location

Airport or City:

Trip Planner

Search our weather history database for the weather conditions in past years. The results will help you decide how hot, cold, wet, or windy it might be!

Date:

Astronomy

Mar. 26, 2013 Rise Set
Actual Time 6:20 AM EET 6:43 PM EET
Civil Twilight 5:53 AM EET 7:09 PM EET
Nautical Twilight 5:22 AM EET 7:40 PM EET
Astronomical Twilight 4:51 AM EET 8:12 PM EET
Moon 5:59 PM EET (3/26) 5:25 AM EET (3/26)
Length of Visible Light 13h 15m
Length of Day
12h 23m
Waxing Gibbous, 99% of the Moon is Illuminated
Mar 26
Waxing Gibbous
Mar 27
Full
Apr 3
Last Quarter
Apr 10
New
Apr 18
First Quarter

Hourly Weather History & Observations

Time (EET) Temp. Dew Point Humidity Pressure Visibility Wind Dir Wind Speed Gust Speed Precip Events Conditions
12:50 AM 55.4 °F 55.4 °F 100% 29.59 in 5.0 mi SE 4.6 mph - N/A   Partly Cloudy
1:50 AM 53.6 °F 51.8 °F 94% 29.59 in 5.0 mi Calm Calm - N/A   Partly Cloudy
2:50 AM 51.8 °F 48.2 °F 88% 29.56 in 5.0 mi Calm Calm - N/A   Partly Cloudy
3:50 AM 55.4 °F 46.4 °F 72% 29.53 in 6.2 mi West 4.6 mph - N/A   Partly Cloudy
4:50 AM 53.6 °F 41.0 °F 62% 29.53 in 6.2 mi SSW 4.6 mph - N/A   Scattered Clouds
5:20 AM 53.6 °F 42.8 °F 67% 29.53 in 6.2 mi Calm Calm - N/A   Scattered Clouds
5:50 AM 53.6 °F 42.8 °F 67% 29.53 in 6.2 mi Calm Calm - N/A   Scattered Clouds
6:20 AM 55.4 °F 42.8 °F 63% 29.53 in 6.2 mi Calm Calm - N/A   Scattered Clouds
6:50 AM 55.4 °F 44.6 °F 67% 29.53 in 6.2 mi Calm Calm - N/A   Mostly Cloudy
7:20 AM 55.4 °F 46.4 °F 72% 29.53 in 6.2 mi Calm Calm - N/A   Mostly Cloudy
7:50 AM 57.2 °F 48.2 °F 72% 29.53 in 6.2 mi Calm Calm - N/A Rain Light Rain
8:20 AM 57.2 °F 50.0 °F 77% 29.53 in 6.2 mi Calm Calm - N/A   Mostly Cloudy
8:50 AM 59.0 °F 50.0 °F 72% 29.53 in 6.2 mi Calm Calm - N/A   Scattered Clouds
9:20 AM 60.8 °F 48.2 °F 63% 29.53 in 6.2 mi Calm Calm - N/A   Scattered Clouds
9:50 AM 60.8 °F 46.4 °F 59% 29.53 in 6.2 mi Calm Calm - N/A   Scattered Clouds
10:20 AM 60.8 °F 46.4 °F 59% 29.53 in 6.2 mi Calm Calm - N/A   Scattered Clouds
10:50 AM 64.4 °F 48.2 °F 56% 29.53 in 6.2 mi SSW 9.2 mph - N/A   Partly Cloudy
11:20 AM 66.2 °F 46.4 °F 49% 29.53 in 6.2 mi WSW 9.2 mph - N/A   Partly Cloudy
11:50 AM 64.4 °F 44.6 °F 49% 29.53 in 6.2 mi WSW 11.5 mph - N/A   Partly Cloudy
12:20 PM 66.2 °F 44.6 °F 46% 29.53 in 6.2 mi West 13.8 mph - N/A   Partly Cloudy
12:50 PM 66.2 °F 44.6 °F 46% 29.53 in 6.2 mi West 16.1 mph - N/A   Partly Cloudy
1:20 PM 66.2 °F 44.6 °F 46% 29.53 in 6.2 mi West 13.8 mph - N/A   Partly Cloudy
1:50 PM 66.2 °F 42.8 °F 43% 29.53 in 6.2 mi WSW 16.1 mph - N/A   Partly Cloudy
2:50 PM 68.0 °F 44.6 °F 43% 29.50 in 6.2 mi West 13.8 mph - N/A   Partly Cloudy
3:20 PM 64.4 °F 44.6 °F 49% 29.50 in 6.2 mi West 11.5 mph - N/A   Partly Cloudy
3:50 PM 64.4 °F 44.6 °F 49% 29.53 in 6.2 mi West 17.3 mph - N/A   Partly Cloudy
4:20 PM 66.2 °F 44.6 °F 46% 29.53 in 6.2 mi WSW 11.5 mph - N/A   Partly Cloudy
4:50 PM 64.4 °F 44.6 °F 49% 29.53 in 6.2 mi West 16.1 mph - N/A   Partly Cloudy
5:20 PM 64.4 °F 42.8 °F 45% 29.53 in 6.2 mi West 16.1 mph - N/A   Partly Cloudy
5:50 PM 62.6 °F 44.6 °F 52% 29.53 in 6.2 mi West 11.5 mph - N/A   Partly Cloudy
6:20 PM 62.6 °F 44.6 °F 52% 29.53 in 6.2 mi West 9.2 mph - N/A   Mostly Cloudy
6:50 PM 60.8 °F 44.6 °F 55% 29.56 in 6.2 mi West 9.2 mph - N/A   Scattered Clouds
7:20 PM 60.8 °F 44.6 °F 55% 29.56 in 6.2 mi West 9.2 mph - N/A   Scattered Clouds
7:50 PM 60.8 °F 44.6 °F 55% 29.56 in 6.2 mi West 9.2 mph - N/A   Scattered Clouds
8:20 PM 59.0 °F 42.8 °F 55% 29.56 in 6.2 mi NW 9.2 mph - N/A   Scattered Clouds
8:50 PM 59.0 °F 41.0 °F 51% 29.59 in 6.2 mi WSW 4.6 mph - N/A   Partly Cloudy
9:20 PM 59.0 °F 41.0 °F 51% 29.59 in 6.2 mi WSW 5.8 mph - N/A   Partly Cloudy
9:50 PM 57.2 °F 41.0 °F 55% 29.62 in 6.2 mi NW 6.9 mph - N/A   Scattered Clouds
10:20 PM 57.2 °F 41.0 °F 55% 29.62 in 6.2 mi NNW 6.9 mph - N/A   Partly Cloudy
10:50 PM 55.4 °F 41.0 °F 58% 29.62 in 6.2 mi Calm Calm - N/A   Partly Cloudy
11:50 PM 57.2 °F 41.0 °F 55% 29.62 in 6.2 mi NNW 9.2 mph - N/A   Partly Cloudy